Location: Newark
(58.9986°N, 38.5006°E)
Time: 04:18:31
(UTC+00:00)

N. Korean satellite - Pass Details

Date: 10 December 2019
Orbit: 454 x 508 km, 97.2° (Epoch: 18 January)

Event Time Altitude Azimuth Distance (km) Brightness Sun altitude
Rises 04:55:44 0° 8° (N) 2,581 10.0 -7.9°
Reaches altitude 10° 04:58:10 10° 353° (N) 1,683 8.9 -7.7°
Maximum altitude 05:00:56 21° 302° (WNW) 1,130 7.8 -7.4°
Drops below altitude 10° 05:03:40 10° 252° (WSW) 1,650 8.9 -7.1°
Sets 05:06:01 0° 236° (SW) 2,513 10.0 -6.8°
